Wetterdaten: Sonntag, 20.12.2015
Datum Zeit Temp. A. Feuchte A. Luftdruck Regen Wind Richtung Richtung Sonnenschein ET UV Solar Taupunkt Windchill Windben Empfang
20.12.2015 00:00 3,8 C 99 % 1026,0 hPa 0,0 l/m 9,3 km/h (2 Bft) O-NO 57 0 min 0,000 mm 0,0 UV-I 0 W/m 3,7 C 1,3 C 14,5 km/h (3 Bft) 99,15 %
20.12.2015 00:05 3,8 C 99 % 1025,9 hPa 0,0 l/m 10,6 km/h (2 Bft) O-NO 61 0 min 0,000 mm 0,0 UV-I 0 W/m 3,7 C 0,3 C 16,1 km/h (3 Bft) 75,00 %
20.12.2015 00:10 3,7 C 99 % 1025,9 hPa 0,0 l/m 9,4 km/h (2 Bft) NO 39 0 min 0,000 mm 0,0 UV-I 0 W/m 3,6 C 1,1 C 16,1 km/h (3 Bft) 98,17 %
20.12.2015 00:15 3,7 C 99 % 1026,0 hPa 0,0 l/m 8,7 km/h (2 Bft) N-NO 23 0 min 0,000 mm 0,0 UV-I 0 W/m 3,6 C 1,6 C 14,5 km/h (3 Bft) 99,17 %
20.12.2015 00:20 3,6 C 99 % 1025,9 hPa 0,0 l/m 7,3 km/h (2 Bft) NO 51 0 min 0,000 mm 0,0 UV-I 0 W/m 3,5 C 2,8 C 14,5 km/h (3 Bft) 98,35 %
20.12.2015 00:25 3,6 C 99 % 1026,0 hPa 0,0 l/m 6,7 km/h (2 Bft) NO 42 0 min 0,000 mm 0,0 UV-I 0 W/m 3,5 C 3,3 C 9,7 km/h (2 Bft) 99,07 %
20.12.2015 00:30 3,6 C 99 % 1025,9 hPa 0,0 l/m 6,3 km/h (2 Bft) O 86 0 min 0,000 mm 0,0 UV-I 0 W/m 3,5 C 3,6 C 12,9 km/h (3 Bft) 100,00 %
20.12.2015 00:35 3,6 C 99 % 1025,9 hPa 0,0 l/m 7,5 km/h (2 Bft) O-NO 57 0 min 0,000 mm 0,0 UV-I 0 W/m 3,5 C 2,6 C 12,9 km/h (3 Bft) 100,00 %
20.12.2015 00:40 3,6 C 99 % 1025,8 hPa 0,0 l/m 10,5 km/h (2 Bft) O-NO 67 0 min 0,000 mm 0,0 UV-I 0 W/m 3,5 C 0,2 C 14,5 km/h (3 Bft) 99,12 %
20.12.2015 00:45 3,6 C 99 % 1025,8 hPa 0,0 l/m 6,8 km/h (2 Bft) O 88 0 min 0,000 mm 0,0 UV-I 0 W/m 3,5 C 3,2 C 12,9 km/h (3 Bft) 99,19 %
20.12.2015 00:50 3,6 C 99 % 1025,7 hPa 0,0 l/m 7,9 km/h (2 Bft) O 101 0 min 0,000 mm 0,0 UV-I 0 W/m 3,5 C 2,2 C 14,5 km/h (3 Bft) 100,00 %
20.12.2015 00:55 3,5 C 99 % 1025,6 hPa 0,0 l/m 8,2 km/h (2 Bft) O-NO 71 0 min 0,000 mm 0,0 UV-I 0 W/m 3,4 C 1,9 C 14,5 km/h (3 Bft) 100,00 %
20.12.2015 01:00 3,4 C 99 % 1025,5 hPa 0,0 l/m 10,2 km/h (2 Bft) O 84 0 min 0,000 mm 0,0 UV-I 0 W/m 3,3 C 0,2 C 16,1 km/h (3 Bft) 99,06 %
20.12.2015 01:05 3,4 C 99 % 1025,6 hPa 0,0 l/m 7,2 km/h (2 Bft) O-SO 105 0 min 0,000 mm 0,0 UV-I 0 W/m 3,3 C 2,7 C 12,9 km/h (3 Bft) 100,00 %
20.12.2015 01:10 3,4 C 99 % 1025,6 hPa 0,0 l/m 7,6 km/h (2 Bft) O 96 0 min 0,000 mm 0,0 UV-I 0 W/m 3,3 C 2,3 C 12,9 km/h (3 Bft) 99,11 %
20.12.2015 01:15 3,4 C 99 % 1025,5 hPa 0,0 l/m 6,3 km/h (2 Bft) NO 55 0 min 0,000 mm 0,0 UV-I 0 W/m 3,3 C 3,4 C 12,9 km/h (3 Bft) 97,58 %
20.12.2015 01:20 3,5 C 99 % 1025,5 hPa 0,0 l/m 8,5 km/h (2 Bft) O 82 0 min 0,000 mm 0,0 UV-I 0 W/m 3,4 C 1,6 C 16,1 km/h (3 Bft) 96,58 %
20.12.2015 01:25 3,5 C 99 % 1025,4 hPa 0,0 l/m 10,1 km/h (2 Bft) NO 54 0 min 0,000 mm 0,0 UV-I 0 W/m 3,4 C 0,3 C 19,3 km/h (3 Bft) 95,80 %
20.12.2015 01:30 3,4 C 99 % 1025,3 hPa 0,0 l/m 10,2 km/h (2 Bft) O-NO 75 0 min 0,000 mm 0,0 UV-I 0 W/m 3,3 C 0,2 C 14,5 km/h (3 Bft) 96,12 %
20.12.2015 01:35 3,4 C 99 % 1025,2 hPa 0,0 l/m 9,2 km/h (2 Bft) O-NO 69 0 min 0,000 mm 0,0 UV-I 0 W/m 3,3 C 0,9 C 16,1 km/h (3 Bft) 97,60 %
20.12.2015 01:40 3,4 C 99 % 1025,2 hPa 0,0 l/m 8,1 km/h (2 Bft) O 98 0 min 0,000 mm 0,0 UV-I 0 W/m 3,3 C 1,8 C 12,9 km/h (3 Bft) 97,32 %
20.12.2015 01:45 3,3 C 99 % 1025,2 hPa 0,0 l/m 5,9 km/h (2 Bft) SO 128 0 min 0,000 mm 0,0 UV-I 0 W/m 3,2 C 3,3 C 11,3 km/h (2 Bft) 96,58 %
20.12.2015 01:50 3,4 C 99 % 1025,3 hPa 0,0 l/m 6,7 km/h (2 Bft) O-NO 78 0 min 0,000 mm 0,0 UV-I 0 W/m 3,3 C 3,1 C 16,1 km/h (3 Bft) 100,00 %
20.12.2015 01:55 3,3 C 99 % 1025,4 hPa 0,0 l/m 8,1 km/h (2 Bft) NO 49 0 min 0,000 mm 0,0 UV-I 0 W/m 3,2 C 1,7 C 12,9 km/h (3 Bft) 99,15 %
20.12.2015 02:00 3,3 C 99 % 1025,4 hPa 0,0 l/m 8,5 km/h (2 Bft) NO 48 0 min 0,000 mm 0,0 UV-I 0 W/m 3,2 C 1,4 C 14,5 km/h (3 Bft) 100,00 %
20.12.2015 02:05 3,4 C 99 % 1025,5 hPa 0,0 l/m 7,4 km/h (2 Bft) NO 50 0 min 0,000 mm 0,0 UV-I 0 W/m 3,3 C 2,5 C 12,9 km/h (3 Bft) 99,15 %
20.12.2015 02:10 3,4 C 99 % 1025,4 hPa 0,0 l/m 8,5 km/h (2 Bft) O-NO 76 0 min 0,000 mm 0,0 UV-I 0 W/m 3,3 C 1,5 C 14,5 km/h (3 Bft) 99,15 %
20.12.2015 02:15 3,4 C 99 % 1025,4 hPa 0,0 l/m 7,4 km/h (2 Bft) O-NO 65 0 min 0,000 mm 0,0 UV-I 0 W/m 3,3 C 2,5 C 16,1 km/h (3 Bft) 98,33 %
20.12.2015 02:20 3,4 C 99 % 1025,4 hPa 0,0 l/m 10,2 km/h (2 Bft) O-NO 76 0 min 0,000 mm 0,0 UV-I 0 W/m 3,3 C 0,2 C 16,1 km/h (3 Bft) 100,00 %
20.12.2015 02:25 3,4 C 99 % 1025,4 hPa 0,0 l/m 9,0 km/h (2 Bft) O 88 0 min 0,000 mm 0,0 UV-I 0 W/m 3,3 C 1,1 C 16,1 km/h (3 Bft) 98,29 %
20.12.2015 02:30 3,4 C 99 % 1025,4 hPa 0,0 l/m 10,8 km/h (2 Bft) O-NO 71 0 min 0,000 mm 0,0 UV-I 0 W/m 3,3 C -0,3 C 17,7 km/h (3 Bft) 99,13 %
20.12.2015 02:35 3,4 C 99 % 1025,4 hPa 0,0 l/m 10,7 km/h (2 Bft) NO 53 0 min 0,000 mm 0,0 UV-I 0 W/m 3,3 C -0,2 C 17,7 km/h (3 Bft) 99,13 %
20.12.2015 02:40 3,4 C 99 % 1025,3 hPa 0,0 l/m 11,9 km/h (2 Bft) NO 54 0 min 0,000 mm 0,0 UV-I 0 W/m 3,3 C -1,0 C 17,7 km/h (3 Bft) 99,17 %
20.12.2015 02:45 3,3 C 99 % 1025,3 hPa 0,0 l/m 13,4 km/h (3 Bft) O 84 0 min 0,000 mm 0,0 UV-I 0 W/m 3,2 C -2,1 C 19,3 km/h (3 Bft) 99,11 %
20.12.2015 02:50 3,4 C 99 % 1025,3 hPa 0,0 l/m 9,1 km/h (2 Bft) O 82 0 min 0,000 mm 0,0 UV-I 0 W/m 3,3 C 1,0 C 17,7 km/h (3 Bft) 100,00 %
20.12.2015 02:55 3,4 C 99 % 1025,2 hPa 0,0 l/m 13,2 km/h (3 Bft) O 86 0 min 0,000 mm 0,0 UV-I 0 W/m 3,3 C -1,8 C 20,9 km/h (4 Bft) 100,00 %
20.12.2015 03:00 3,3 C 99 % 1025,1 hPa 0,2 l/m 14,5 km/h (3 Bft) NO 49 0 min 0,000 mm 0,0 UV-I 0 W/m 3,2 C -2,7 C 20,9 km/h (4 Bft) 100,00 %
20.12.2015 03:05 3,3 C 99 % 1025,1 hPa 0,0 l/m 14,9 km/h (3 Bft) NO 36 0 min 0,000 mm 0,0 UV-I 0 W/m 3,2 C -2,9 C 20,9 km/h (4 Bft) 98,06 %
20.12.2015 03:10 3,3 C 99 % 1025,1 hPa 0,0 l/m 15,1 km/h (3 Bft) O-NO 60 0 min 0,000 mm 0,0 UV-I 0 W/m 3,2 C -3,0 C 24,1 km/h (4 Bft) 98,48 %
20.12.2015 03:15 3,3 C 99 % 1025,1 hPa 0,0 l/m 12,4 km/h (3 Bft) O 95 0 min 0,000 mm 0,0 UV-I 0 W/m 3,2 C -1,5 C 22,5 km/h (4 Bft) 96,69 %
20.12.2015 03:20 3,3 C 99 % 1025,0 hPa 0,0 l/m 14,5 km/h (3 Bft) O-NO 57 0 min 0,000 mm 0,0 UV-I 0 W/m 3,2 C -2,7 C 22,5 km/h (4 Bft) 95,61 %
20.12.2015 03:25 3,3 C 99 % 1024,9 hPa 0,0 l/m 16,1 km/h (3 Bft) O-NO 69 0 min 0,000 mm 0,0 UV-I 0 W/m 3,2 C -3,6 C 20,9 km/h (4 Bft) 97,58 %
20.12.2015 03:30 3,3 C 99 % 1024,9 hPa 0,0 l/m 13,0 km/h (3 Bft) O 80 0 min 0,000 mm 0,0 UV-I 0 W/m 3,2 C -1,8 C 17,7 km/h (3 Bft) 97,32 %
20.12.2015 03:35 3,3 C 99 % 1024,9 hPa 0,0 l/m 8,8 km/h (2 Bft) O 93 0 min 0,000 mm 0,0 UV-I 0 W/m 3,2 C 1,1 C 14,5 km/h (3 Bft) 97,56 %
20.12.2015 03:40 3,3 C 99 % 1024,8 hPa 0,0 l/m 10,9 km/h (2 Bft) O-NO 78 0 min 0,000 mm 0,0 UV-I 0 W/m 3,2 C -0,5 C 16,1 km/h (3 Bft) 95,28 %
20.12.2015 03:45 3,3 C 99 % 1024,8 hPa 0,0 l/m 9,9 km/h (2 Bft) O 92 0 min 0,000 mm 0,0 UV-I 0 W/m 3,2 C 0,3 C 16,1 km/h (3 Bft) 96,90 %
20.12.2015 03:50 3,4 C 99 % 1024,8 hPa 0,0 l/m 7,4 km/h (2 Bft) O-NO 59 0 min 0,000 mm 0,0 UV-I 0 W/m 3,3 C 2,5 C 12,9 km/h (3 Bft) 99,00 %
20.12.2015 03:55 3,4 C 99 % 1024,8 hPa 0,0 l/m 8,2 km/h (2 Bft) O-NO 68 0 min 0,000 mm 0,0 UV-I 0 W/m 3,3 C 1,7 C 16,1 km/h (3 Bft) 98,46 %
20.12.2015 04:00 3,3 C 99 % 1024,7 hPa 0,0 l/m 8,5 km/h (2 Bft) NO 49 0 min 0,000 mm 0,0 UV-I 0 W/m 3,2 C 1,4 C 16,1 km/h (3 Bft) 99,12 %
20.12.2015 04:05 3,3 C 99 % 1024,7 hPa 0,0 l/m 8,7 km/h (2 Bft) NO 53 0 min 0,000 mm 0,0 UV-I 0 W/m 3,2 C 1,2 C 14,5 km/h (3 Bft) 100,00 %
20.12.2015 04:10 3,2 C 99 % 1024,7 hPa 0,0 l/m 11,7 km/h (2 Bft) NO 44 0 min 0,000 mm 0,0 UV-I 0 W/m 3,1 C -1,1 C 17,7 km/h (3 Bft) 99,15 %
20.12.2015 04:15 3,2 C 99 % 1024,7 hPa 0,0 l/m 10,2 km/h (2 Bft) NO 51 0 min 0,000 mm 0,0 UV-I 0 W/m 3,1 C -0,1 C 16,1 km/h (3 Bft) 98,25 %
20.12.2015 04:20 3,1 C 99 % 1024,7 hPa 0,0 l/m 9,8 km/h (2 Bft) O-NO 72 0 min 0,000 mm 0,0 UV-I 0 W/m 3,0 C 0,1 C 19,3 km/h (3 Bft) 98,43 %
20.12.2015 04:25 3,1 C 99 % 1024,7 hPa 0,0 l/m 8,7 km/h (2 Bft) O-NO 73 0 min 0,000 mm 0,0 UV-I 0 W/m 3,0 C 1,0 C 14,5 km/h (3 Bft) 99,15 %
20.12.2015 04:30 3,1 C 99 % 1024,8 hPa 0,0 l/m 7,6 km/h (2 Bft) N-NO 30 0 min 0,000 mm 0,0 UV-I 0 W/m 3,0 C 2,0 C 14,5 km/h (3 Bft) 99,15 %
20.12.2015 04:35 3,0 C 99 % 1024,8 hPa 0,0 l/m 12,3 km/h (3 Bft) O-NO 67 0 min 0,000 mm 0,0 UV-I 0 W/m 2,9 C -1,7 C 19,3 km/h (3 Bft) 99,11 %
20.12.2015 04:40 2,9 C 99 % 1024,8 hPa 0,0 l/m 11,9 km/h (2 Bft) O-NO 67 0 min 0,000 mm 0,0 UV-I 0 W/m 2,8 C -1,6 C 17,7 km/h (3 Bft) 99,12 %
20.12.2015 04:45 2,9 C 99 % 1024,8 hPa 0,0 l/m 10,9 km/h (2 Bft) NO 53 0 min 0,000 mm 0,0 UV-I 0 W/m 2,8 C -0,9 C 19,3 km/h (3 Bft) 100,00 %
20.12.2015 04:50 2,9 C 99 % 1024,8 hPa 0,0 l/m 9,9 km/h (2 Bft) NO 48 0 min 0,000 mm 0,0 UV-I 0 W/m 2,8 C -0,2 C 16,1 km/h (3 Bft) 99,11 %
20.12.2015 04:55 2,9 C 99 % 1024,9 hPa 0,0 l/m 11,1 km/h (2 Bft) NO 43 0 min 0,000 mm 0,0 UV-I 0 W/m 2,8 C -1,0 C 17,7 km/h (3 Bft) 99,19 %
20.12.2015 05:00 2,9 C 99 % 1024,9 hPa 0,0 l/m 12,0 km/h (2 Bft) N-NO 30 0 min 0,000 mm 0,0 UV-I 0 W/m 2,8 C -1,7 C 17,7 km/h (3 Bft) 99,17 %
20.12.2015 05:05 2,8 C 99 % 1024,9 hPa 0,0 l/m 10,6 km/h (2 Bft) O-NO 63 0 min 0,000 mm 0,0 UV-I 0 W/m 2,7 C -0,8 C 17,7 km/h (3 Bft) 100,00 %
20.12.2015 05:10 2,8 C 99 % 1024,9 hPa 0,0 l/m 10,4 km/h (2 Bft) O-NO 76 0 min 0,000 mm 0,0 UV-I 0 W/m 2,7 C -0,7 C 16,1 km/h (3 Bft) 99,17 %
20.12.2015 05:15 2,8 C 99 % 1024,9 hPa 0,0 l/m 7,6 km/h (2 Bft) SO 134 0 min 0,000 mm 0,0 UV-I 0 W/m 2,7 C 1,7 C 12,9 km/h (3 Bft) 99,17 %
20.12.2015 05:20 2,8 C 99 % 1024,9 hPa 0,0 l/m 5,9 km/h (2 Bft) O-NO 61 0 min 0,000 mm 0,0 UV-I 0 W/m 2,7 C 2,8 C 11,3 km/h (2 Bft) 97,30 %
20.12.2015 05:25 2,8 C 99 % 1024,9 hPa 0,0 l/m 6,6 km/h (2 Bft) NO 48 0 min 0,000 mm 0,0 UV-I 0 W/m 2,7 C 2,6 C 12,9 km/h (3 Bft) 96,77 %
20.12.2015 05:30 2,8 C 99 % 1024,9 hPa 0,0 l/m 6,1 km/h (2 Bft) NO 43 0 min 0,000 mm 0,0 UV-I 0 W/m 2,7 C 2,8 C 8,0 km/h (2 Bft) 97,32 %
20.12.2015 05:35 2,9 C 99 % 1024,8 hPa 0,0 l/m 6,9 km/h (2 Bft) O 83 0 min 0,000 mm 0,0 UV-I 0 W/m 2,8 C 2,4 C 9,7 km/h (2 Bft) 96,75 %
20.12.2015 05:40 2,9 C 99 % 1024,9 hPa 0,0 l/m 7,5 km/h (2 Bft) O-NO 71 0 min 0,000 mm 0,0 UV-I 0 W/m 2,8 C 1,9 C 12,9 km/h (3 Bft) 97,25 %
20.12.2015 05:45 2,9 C 99 % 1024,9 hPa 0,0 l/m 10,1 km/h (2 Bft) O-NO 70 0 min 0,000 mm 0,0 UV-I 0 W/m 2,8 C -0,3 C 16,1 km/h (3 Bft) 97,62 %
20.12.2015 05:50 2,8 C 99 % 1024,8 hPa 0,0 l/m 8,0 km/h (2 Bft) NO 55 0 min 0,000 mm 0,0 UV-I 0 W/m 2,7 C 1,3 C 17,7 km/h (3 Bft) 99,06 %
20.12.2015 05:55 2,7 C 99 % 1024,9 hPa 0,0 l/m 11,5 km/h (2 Bft) O-NO 59 0 min 0,000 mm 0,0 UV-I 0 W/m 2,6 C -1,6 C 17,7 km/h (3 Bft) 99,17 %
20.12.2015 06:00 2,7 C 99 % 1024,9 hPa 0,0 l/m 11,7 km/h (2 Bft) O-NO 63 0 min 0,000 mm 0,0 UV-I 0 W/m 2,6 C -1,7 C 17,7 km/h (3 Bft) 98,29 %
20.12.2015 06:05 2,7 C 99 % 1024,9 hPa 0,0 l/m 8,1 km/h (2 Bft) NO 45 0 min 0,000 mm 0,0 UV-I 0 W/m 2,6 C 1,1 C 14,5 km/h (3 Bft) 99,17 %
20.12.2015 06:10 2,8 C 99 % 1025,0 hPa 0,0 l/m 7,9 km/h (2 Bft) NO 48 0 min 0,000 mm 0,0 UV-I 0 W/m 2,7 C 1,4 C 12,9 km/h (3 Bft) 97,39 %
20.12.2015 06:15 2,8 C 99 % 1025,0 hPa 0,0 l/m 8,9 km/h (2 Bft) NO 40 0 min 0,000 mm 0,0 UV-I 0 W/m 2,7 C 0,5 C 16,1 km/h (3 Bft) 98,33 %
20.12.2015 06:20 2,8 C 99 % 1025,0 hPa 0,0 l/m 8,6 km/h (2 Bft) O-NO 74 0 min 0,000 mm 0,0 UV-I 0 W/m 2,7 C 0,8 C 14,5 km/h (3 Bft) 100,00 %
20.12.2015 06:25 2,8 C 99 % 1025,1 hPa 0,0 l/m 8,4 km/h (2 Bft) O 80 0 min 0,000 mm 0,0 UV-I 0 W/m 2,7 C 0,9 C 16,1 km/h (3 Bft) 100,00 %
20.12.2015 06:30 2,8 C 99 % 1025,0 hPa 0,0 l/m 7,9 km/h (2 Bft) O-SO 112 0 min 0,000 mm 0,0 UV-I 0 W/m 2,7 C 1,4 C 14,5 km/h (3 Bft) 99,06 %
20.12.2015 06:35 2,7 C 99 % 1025,0 hPa 0,0 l/m 9,9 km/h (2 Bft) O-NO 74 0 min 0,000 mm 0,0 UV-I 0 W/m 2,6 C -0,4 C 14,5 km/h (3 Bft) 99,21 %
20.12.2015 06:40 2,7 C 99 % 1025,0 hPa 0,0 l/m 14,0 km/h (3 Bft) O 81 0 min 0,000 mm 0,0 UV-I 0 W/m 2,6 C -3,1 C 19,3 km/h (3 Bft) 100,00 %
20.12.2015 06:45 2,7 C 99 % 1025,0 hPa 0,0 l/m 12,1 km/h (2 Bft) NO 40 0 min 0,000 mm 0,0 UV-I 0 W/m 2,6 C -2,0 C 20,9 km/h (4 Bft) 100,00 %
20.12.2015 06:50 2,7 C 99 % 1025,1 hPa 0,0 l/m 9,6 km/h (2 Bft) O-NO 61 0 min 0,000 mm 0,0 UV-I 0 W/m 2,6 C -0,2 C 16,1 km/h (3 Bft) 100,00 %
20.12.2015 06:55 2,7 C 99 % 1025,2 hPa 0,0 l/m 8,5 km/h (2 Bft) O-NO 63 0 min 0,000 mm 0,0 UV-I 0 W/m 2,6 C 0,7 C 16,1 km/h (3 Bft) 98,33 %
20.12.2015 07:00 2,8 C 99 % 1025,2 hPa 0,0 l/m 9,2 km/h (2 Bft) O 89 0 min 0,000 mm 0,0 UV-I 0 W/m 2,7 C 0,3 C 14,5 km/h (3 Bft) 97,46 %
20.12.2015 07:05 2,8 C 99 % 1025,1 hPa 0,0 l/m 8,0 km/h (2 Bft) O-NO 60 0 min 0,000 mm 0,0 UV-I 0 W/m 2,7 C 1,3 C 16,1 km/h (3 Bft) 100,00 %
20.12.2015 07:10 2,8 C 99 % 1025,1 hPa 0,0 l/m 8,9 km/h (2 Bft) O 82 0 min 0,000 mm 0,0 UV-I 0 W/m 2,7 C 0,5 C 16,1 km/h (3 Bft) 99,15 %
20.12.2015 07:15 2,8 C 99 % 1025,1 hPa 0,0 l/m 11,1 km/h (2 Bft) O-NO 74 0 min 0,000 mm 0,0 UV-I 0 W/m 2,7 C -1,2 C 17,7 km/h (3 Bft) 100,00 %
20.12.2015 07:20 2,8 C 99 % 1025,1 hPa 0,0 l/m 11,0 km/h (2 Bft) O-NO 71 0 min 0,000 mm 0,0 UV-I 0 W/m 2,7 C -1,1 C 16,1 km/h (3 Bft) 95,93 %
20.12.2015 07:25 2,8 C 99 % 1025,1 hPa 0,0 l/m 9,8 km/h (2 Bft) NO 55 0 min 0,000 mm 0,0 UV-I 0 W/m 2,7 C -0,2 C 16,1 km/h (3 Bft) 96,52 %
20.12.2015 07:30 2,8 C 99 % 1025,2 hPa 0,0 l/m 11,0 km/h (2 Bft) O-NO 71 0 min 0,000 mm 0,0 UV-I 0 W/m 2,7 C -1,1 C 17,7 km/h (3 Bft) 96,61 %
20.12.2015 07:35 2,8 C 99 % 1025,2 hPa 0,0 l/m 8,2 km/h (2 Bft) O-NO 75 0 min 0,000 mm 0,0 UV-I 0 W/m 2,7 C 1,1 C 14,5 km/h (3 Bft) 97,50 %
20.12.2015 07:40 2,8 C 99 % 1025,2 hPa 0,0 l/m 8,2 km/h (2 Bft) O-NO 63 0 min 0,000 mm 0,0 UV-I 0 W/m 2,7 C 1,1 C 14,5 km/h (3 Bft) 95,41 %
20.12.2015 07:45 2,8 C 99 % 1025,2 hPa 0,0 l/m 10,0 km/h (2 Bft) O 82 0 min 0,000 mm 0,0 UV-I 0 W/m 2,7 C -0,4 C 14,5 km/h (3 Bft) 95,41 %
20.12.2015 07:50 2,8 C 99 % 1025,3 hPa 0,0 l/m 9,8 km/h (2 Bft) O-NO 61 0 min 0,000 mm 0,0 UV-I 0 W/m 2,7 C -0,2 C 16,1 km/h (3 Bft) 97,73 %
20.12.2015 07:55 2,9 C 99 % 1025,2 hPa 0,0 l/m 7,4 km/h (2 Bft) NO 48 0 min 0,000 mm 0,0 UV-I 0 W/m 2,8 C 1,9 C 12,9 km/h (3 Bft) 97,46 %
20.12.2015 08:00 2,9 C 99 % 1025,3 hPa 0,0 l/m 8,8 km/h (2 Bft) O 81 0 min 0,000 mm 0,0 UV-I 0 W/m 2,8 C 0,7 C 14,5 km/h (3 Bft) 98,29 %
20.12.2015 08:05 2,9 C 99 % 1025,3 hPa 0,0 l/m 8,1 km/h (2 Bft) O-NO 61 0 min 0,000 mm 0,0 UV-I 0 W/m 2,8 C 1,3 C 14,5 km/h (3 Bft) 99,11 %
20.12.2015 08:10 2,9 C 99 % 1025,3 hPa 0,0 l/m 11,8 km/h (2 Bft) NO 42 0 min 0,000 mm 0,0 UV-I 0 W/m 2,8 C -1,5 C 17,7 km/h (3 Bft) 98,26 %
20.12.2015 08:15 2,9 C 99 % 1025,4 hPa 0,0 l/m 11,7 km/h (2 Bft) O-NO 57 0 min 0,000 mm 0,0 UV-I 3 W/m 2,8 C -1,5 C 17,7 km/h (3 Bft) 100,00 %
20.12.2015 08:20 2,8 C 99 % 1025,5 hPa 0,0 l/m 11,0 km/h (2 Bft) O-NO 78 0 min 0,000 mm 0,0 UV-I 5 W/m 2,7 C -1,1 C 19,3 km/h (3 Bft) 100,00 %
20.12.2015 08:25 2,8 C 99 % 1025,5 hPa 0,0 l/m 8,4 km/h (2 Bft) O-NO 73 0 min 0,000 mm 0,0 UV-I 6 W/m 2,7 C 0,9 C 12,9 km/h (3 Bft) 99,17 %
20.12.2015 08:30 2,8 C 99 % 1025,5 hPa 0,0 l/m 6,5 km/h (2 Bft) NO 50 0 min 0,000 mm 0,0 UV-I 7 W/m 2,7 C 2,7 C 9,7 km/h (2 Bft) 100,00 %
20.12.2015 08:35 2,9 C 99 % 1025,5 hPa 0,0 l/m 7,5 km/h (2 Bft) O 93 0 min 0,000 mm 0,0 UV-I 8 W/m 2,8 C 1,9 C 14,5 km/h (3 Bft) 100,00 %
20.12.2015 08:45 2,8 C 99 % 1025,5 hPa 0,0 l/m 13,0 km/h (3 Bft) O-NO 61 0 min 0,000 mm 0,0 UV-I 11 W/m 2,7 C -2,4 C 16,1 km/h (3 Bft) 99,62 %
20.12.2015 08:50 2,8 C 99 % 1025,5 hPa 0,0 l/m 11,5 km/h (2 Bft) NO 54 0 min 0,000 mm 0,0 UV-I 12 W/m 2,7 C -1,4 C 19,3 km/h (3 Bft) 99,19 %
20.12.2015 08:55 2,8 C 99 % 1025,5 hPa 0,0 l/m 12,7 km/h (3 Bft) O 84 0 min 0,000 mm 0,0 UV-I 13 W/m 2,7 C -2,2 C 19,3 km/h (3 Bft) 96,81 %
20.12.2015 09:00 2,8 C 99 % 1025,5 hPa 0,0 l/m 10,7 km/h (2 Bft) O 101 0 min 0,000 mm 0,0 UV-I 15 W/m 2,7 C -0,9 C 16,1 km/h (3 Bft) 99,24 %
20.12.2015 09:05 2,8 C 99 % 1025,6 hPa 0,0 l/m 9,6 km/h (2 Bft) NO 52 0 min 0,000 mm 0,0 UV-I 15 W/m 2,7 C -0,0 C 17,7 km/h (3 Bft) 98,26 %
20.12.2015 09:10 2,8 C 99 % 1025,5 hPa 0,0 l/m 12,6 km/h (3 Bft) NO 41 0 min 0,000 mm 0,0 UV-I 16 W/m 2,7 C -2,2 C 17,7 km/h (3 Bft) 99,17 %
20.12.2015 09:15 2,8 C 99 % 1025,5 hPa 0,0 l/m 11,3 km/h (2 Bft) NO 49 0 min 0,000 mm 0,0 UV-I 17 W/m 2,7 C -1,3 C 16,1 km/h (3 Bft) 98,26 %
20.12.2015 09:20 2,8 C 99 % 1025,6 hPa 0,0 l/m 13,0 km/h (3 Bft) O-NO 58 0 min 0,000 mm 0,0 UV-I 19 W/m 2,7 C -2,4 C 19,3 km/h (3 Bft) 99,12 %
20.12.2015 09:25 2,8 C 99 % 1025,7 hPa 0,0 l/m 11,6 km/h (2 Bft) O-NO 66 0 min 0,000 mm 0,0 UV-I 19 W/m 2,7 C -1,5 C 17,7 km/h (3 Bft) 96,92 %
20.12.2015 09:30 2,8 C 99 % 1025,7 hPa 0,0 l/m 12,0 km/h (2 Bft) NO 46 0 min 0,000 mm 0,0 UV-I 20 W/m 2,7 C -1,8 C 16,1 km/h (3 Bft) 97,39 %
20.12.2015 09:35 2,8 C 99 % 1025,7 hPa 0,0 l/m 12,2 km/h (2 Bft) NO 56 0 min 0,000 mm 0,0 UV-I 23 W/m 2,7 C -1,9 C 19,3 km/h (3 Bft) 97,44 %
20.12.2015 09:40 2,8 C 99 % 1025,8 hPa 0,0 l/m 12,6 km/h (3 Bft) O-NO 67 0 min 0,000 mm 0,0 UV-I 24 W/m 2,7 C -2,2 C 19,3 km/h (3 Bft) 98,17 %
20.12.2015 09:45 2,8 C 99 % 1025,8 hPa 0,0 l/m 10,5 km/h (2 Bft) NO 45 0 min 0,000 mm 0,0 UV-I 24 W/m 2,7 C -0,7 C 17,7 km/h (3 Bft) 96,61 %
20.12.2015 09:50 2,8 C 99 % 1025,8 hPa 0,0 l/m 11,3 km/h (2 Bft) N-NO 30 0 min 0,000 mm 0,0 UV-I 25 W/m 2,7 C -1,3 C 17,7 km/h (3 Bft) 96,58 %
20.12.2015 09:55 2,9 C 99 % 1025,8 hPa 0,0 l/m 11,7 km/h (2 Bft) NO 51 0 min 0,000 mm 0,0 UV-I 26 W/m 2,8 C -1,5 C 19,3 km/h (3 Bft) 98,39 %
20.12.2015 10:00 2,9 C 99 % 1025,9 hPa 0,0 l/m 12,5 km/h (3 Bft) O-NO 69 0 min 0,000 mm 0,0 UV-I 28 W/m 2,8 C -2,0 C 17,7 km/h (3 Bft) 96,67 %
20.12.2015 10:05 2,9 C 99 % 1025,9 hPa 0,0 l/m 13,6 km/h (3 Bft) O-NO 74 0 min 0,000 mm 0,0 UV-I 31 W/m 2,8 C -2,7 C 20,9 km/h (4 Bft) 97,17 %
20.12.2015 10:10 2,9 C 99 % 1026,0 hPa 0,0 l/m 11,7 km/h (2 Bft) O 92 0 min 0,000 mm 0,0 UV-I 32 W/m 2,8 C -1,5 C 20,9 km/h (4 Bft) 98,31 %
20.12.2015 10:15 2,9 C 99 % 1025,9 hPa 0,0 l/m 12,1 km/h (2 Bft) O 80 0 min 0,000 mm 0,0 UV-I 32 W/m 2,8 C -1,7 C 19,3 km/h (3 Bft) 100,00 %
20.12.2015 10:20 2,9 C 99 % 1025,9 hPa 0,0 l/m 13,7 km/h (3 Bft) O-NO 65 0 min 0,000 mm 0,0 UV-I 37 W/m 2,8 C -2,7 C 22,5 km/h (4 Bft) 98,31 %
20.12.2015 10:25 2,9 C 99 % 1025,9 hPa 0,0 l/m 13,3 km/h (3 Bft) O-NO 60 0 min 0,000 mm 0,0 UV-I 34 W/m 2,8 C -2,5 C 20,9 km/h (4 Bft) 96,23 %
20.12.2015 10:30 2,9 C 99 % 1025,9 hPa 0,0 l/m 10,2 km/h (2 Bft) O-NO 69 0 min 0,000 mm 0,0 UV-I 36 W/m 2,8 C -0,4 C 16,1 km/h (3 Bft) 100,00 %
20.12.2015 10:35 3,0 C 99 % 1025,9 hPa 0,0 l/m 11,4 km/h (2 Bft) NO 55 0 min 0,000 mm 0,0 UV-I 36 W/m 2,9 C -1,1 C 19,3 km/h (3 Bft) 98,39 %
20.12.2015 10:40 3,0 C 99 % 1026,0 hPa 0,0 l/m 10,9 km/h (2 Bft) O 82 0 min 0,000 mm 0,0 UV-I 37 W/m 2,9 C -0,8 C 16,1 km/h (3 Bft) 99,15 %
20.12.2015 10:45 3,0 C 99 % 1026,0 hPa 0,0 l/m 10,6 km/h (2 Bft) O-NO 71 0 min 0,000 mm 0,0 UV-I 39 W/m 2,9 C -0,6 C 17,7 km/h (3 Bft) 100,00 %
20.12.2015 10:50 3,0 C 99 % 1025,9 hPa 0,0 l/m 8,0 km/h (2 Bft) O-NO 67 0 min 0,000 mm 0,0 UV-I 39 W/m 2,9 C 1,5 C 16,1 km/h (3 Bft) 98,00 %
20.12.2015 10:55 3,0 C 99 % 1025,9 hPa 0,0 l/m 10,5 km/h (2 Bft) O-NO 66 0 min 0,000 mm 0,0 UV-I 35 W/m 2,9 C -0,5 C 16,1 km/h (3 Bft) 99,17 %
20.12.2015 11:00 3,0 C 99 % 1025,9 hPa 0,0 l/m 12,8 km/h (3 Bft) NO 42 0 min 0,025 mm 0,0 UV-I 38 W/m 2,9 C -2,1 C 19,3 km/h (3 Bft) 99,21 %
20.12.2015 11:05 3,0 C 99 % 1025,8 hPa 0,0 l/m 10,6 km/h (2 Bft) O-NO 65 0 min 0,000 mm 0,0 UV-I 41 W/m 2,9 C -0,6 C 17,7 km/h (3 Bft) 99,11 %
20.12.2015 11:10 3,0 C 99 % 1025,9 hPa 0,0 l/m 8,5 km/h (2 Bft) O 94 0 min 0,000 mm 0,0 UV-I 43 W/m 2,9 C 1,1 C 14,5 km/h (3 Bft) 99,17 %
20.12.2015 11:15 3,0 C 99 % 1025,9 hPa 0,0 l/m 8,9 km/h (2 Bft) NO 50 0 min 0,000 mm 0,0 UV-I 43 W/m 2,9 C 0,7 C 14,5 km/h (3 Bft) 99,19 %
20.12.2015 11:20 2,9 C 99 % 1025,9 hPa 0,0 l/m 10,2 km/h (2 Bft) NO 50 0 min 0,000 mm 0,0 UV-I 45 W/m 2,8 C -0,4 C 17,7 km/h (3 Bft) 97,44 %
20.12.2015 11:25 2,9 C 99 % 1025,9 hPa 0,0 l/m 11,1 km/h (2 Bft) NO 49 0 min 0,000 mm 0,0 UV-I 44 W/m 2,8 C -1,0 C 16,1 km/h (3 Bft) 97,09 %
20.12.2015 11:30 3,0 C 99 % 1025,9 hPa 0,0 l/m 6,8 km/h (2 Bft) NO 43 0 min 0,000 mm 0,0 UV-I 45 W/m 2,9 C 2,6 C 9,7 km/h (2 Bft) 97,64 %
20.12.2015 11:35 3,1 C 99 % 1026,0 hPa 0,0 l/m 6,4 km/h (2 Bft) NO 53 0 min 0,000 mm 0,0 UV-I 40 W/m 3,0 C 3,1 C 9,7 km/h (2 Bft) 97,50 %
20.12.2015 11:40 3,2 C 99 % 1025,9 hPa 0,0 l/m 6,5 km/h (2 Bft) N-NO 26 0 min 0,000 mm 0,0 UV-I 38 W/m 3,1 C 3,1 C 16,1 km/h (3 Bft) 96,52 %
20.12.2015 11:45 3,2 C 99 % 1026,0 hPa 0,0 l/m 8,8 km/h (2 Bft) NO 49 0 min 0,000 mm 0,0 UV-I 39 W/m 3,1 C 1,0 C 16,1 km/h (3 Bft) 97,44 %
20.12.2015 11:50 3,1 C 99 % 1025,9 hPa 0,0 l/m 8,2 km/h (2 Bft) NO 48 0 min 0,000 mm 0,0 UV-I 41 W/m 3,0 C 1,4 C 14,5 km/h (3 Bft) 96,43 %
20.12.2015 11:55 3,1 C 99 % 1025,9 hPa 0,0 l/m 9,6 km/h (2 Bft) NO 55 0 min 0,000 mm 0,0 UV-I 45 W/m 3,0 C 0,3 C 17,7 km/h (3 Bft) 97,52 %
20.12.2015 12:00 2,9 C 99 % 1025,8 hPa 0,0 l/m 8,5 km/h (2 Bft) NO 55 0 min 0,026 mm 0,0 UV-I 50 W/m 2,8 C 1,0 C 14,5 km/h (3 Bft) 99,10 %
20.12.2015 12:05 3,0 C 99 % 1025,8 hPa 0,0 l/m 5,4 km/h (1 Bft) NO 38 0 min 0,000 mm 0,0 UV-I 46 W/m 2,9 C 3,0 C 11,3 km/h (2 Bft) 98,39 %
20.12.2015 12:10 3,1 C 99 % 1025,8 hPa 0,0 l/m 7,9 km/h (2 Bft) N-NO 26 0 min 0,000 mm 0,0 UV-I 42 W/m 3,0 C 1,7 C 14,5 km/h (3 Bft) 99,08 %
20.12.2015 12:15 3,1 C 99 % 1025,8 hPa 0,0 l/m 7,3 km/h (2 Bft) NO 49 0 min 0,000 mm 0,0 UV-I 42 W/m 3,0 C 2,2 C 11,3 km/h (2 Bft) 100,00 %
20.12.2015 12:20 3,1 C 99 % 1025,9 hPa 0,0 l/m 7,9 km/h (2 Bft) O-NO 69 0 min 0,000 mm 0,0 UV-I 41 W/m 3,0 C 1,7 C 12,9 km/h (3 Bft) 99,08 %
20.12.2015 12:25 3,1 C 99 % 1025,9 hPa 0,0 l/m 7,0 km/h (2 Bft) N-NO 27 0 min 0,000 mm 0,0 UV-I 39 W/m 3,0 C 2,5 C 12,9 km/h (3 Bft) 100,00 %
20.12.2015 12:30 3,1 C 99 % 1026,0 hPa 0,0 l/m 8,3 km/h (2 Bft) O-NO 69 0 min 0,000 mm 0,0 UV-I 39 W/m 3,0 C 1,3 C 16,1 km/h (3 Bft) 99,19 %
20.12.2015 12:35 3,1 C 99 % 1026,0 hPa 0,0 l/m 8,8 km/h (2 Bft) NO 41 0 min 0,000 mm 0,0 UV-I 39 W/m 3,0 C 0,9 C 14,5 km/h (3 Bft) 100,00 %
20.12.2015 12:40 3,1 C 99 % 1025,9 hPa 0,0 l/m 9,5 km/h (2 Bft) NO 45 0 min 0,000 mm 0,0 UV-I 39 W/m 3,0 C 0,4 C 14,5 km/h (3 Bft) 99,10 %
20.12.2015 12:45 3,1 C 99 % 1025,9 hPa 0,0 l/m 6,8 km/h (2 Bft) O-NO 66 0 min 0,000 mm 0,0 UV-I 39 W/m 3,0 C 2,7 C 12,9 km/h (3 Bft) 100,00 %
20.12.2015 12:50 3,1 C 99 % 1025,9 hPa 0,0 l/m 6,8 km/h (2 Bft) O 87 0 min 0,000 mm 0,0 UV-I 42 W/m 3,0 C 2,7 C 12,9 km/h (3 Bft) 99,15 %
20.12.2015 12:55 3,1 C 99 % 1025,9 hPa 0,0 l/m 4,7 km/h (1 Bft) O-SO 119 0 min 0,000 mm 0,0 UV-I 43 W/m 3,0 C 3,1 C 9,7 km/h (2 Bft) 98,29 %
20.12.2015 13:00 3,1 C 99 % 1025,9 hPa 0,0 l/m 5,2 km/h (1 Bft) O-SO 104 0 min 0,025 mm 0,0 UV-I 44 W/m 3,0 C 3,1 C 12,9 km/h (3 Bft) 99,11 %
20.12.2015 13:05 3,2 C 99 % 1025,8 hPa 0,0 l/m 5,0 km/h (1 Bft) NO 53 0 min 0,000 mm 0,0 UV-I 43 W/m 3,1 C 3,2 C 8,0 km/h (2 Bft) 99,15 %
20.12.2015 13:10 3,1 C 99 % 1025,8 hPa 0,0 l/m 7,3 km/h (2 Bft) O-NO 62 0 min 0,000 mm 0,0 UV-I 44 W/m 3,0 C 2,2 C 11,3 km/h (2 Bft) 96,69 %
20.12.2015 13:15 3,1 C 99 % 1025,8 hPa 0,0 l/m 6,7 km/h (2 Bft) O-NO 78 0 min 0,000 mm 0,0 UV-I 47 W/m 3,0 C 2,8 C 12,9 km/h (3 Bft) 100,00 %
20.12.2015 13:20 3,1 C 99 % 1025,8 hPa 0,0 l/m 6,6 km/h (2 Bft) O-NO 75 0 min 0,000 mm 0,0 UV-I 46 W/m 3,0 C 2,9 C 11,3 km/h (2 Bft) 100,00 %
20.12.2015 13:25 3,0 C 99 % 1025,8 hPa 0,0 l/m 5,8 km/h (2 Bft) O 80 0 min 0,000 mm 0,0 UV-I 44 W/m 2,9 C 3,0 C 11,3 km/h (2 Bft) 98,17 %
20.12.2015 13:30 3,0 C 99 % 1025,8 hPa 0,0 l/m 7,2 km/h (2 Bft) O 90 0 min 0,000 mm 0,0 UV-I 40 W/m 2,9 C 2,2 C 12,9 km/h (3 Bft) 95,49 %
20.12.2015 13:35 3,0 C 99 % 1025,8 hPa 0,0 l/m 5,6 km/h (1 Bft) O-NO 67 0 min 0,000 mm 0,0 UV-I 39 W/m 2,9 C 3,0 C 11,3 km/h (2 Bft) 96,40 %
20.12.2015 13:40 3,1 C 99 % 1025,8 hPa 0,0 l/m 2,9 km/h (1 Bft) O-NO 74 0 min 0,000 mm 0,0 UV-I 36 W/m 3,0 C 3,1 C 4,8 km/h (1 Bft) 97,39 %
20.12.2015 13:45 3,2 C 99 % 1025,8 hPa 0,0 l/m 5,1 km/h (1 Bft) O-NO 69 0 min 0,000 mm 0,0 UV-I 36 W/m 3,1 C 3,2 C 8,0 km/h (2 Bft) 96,75 %
20.12.2015 13:50 3,2 C 99 % 1025,8 hPa 0,0 l/m 4,9 km/h (1 Bft) O-NO 67 0 min 0,000 mm 0,0 UV-I 34 W/m 3,1 C 3,2 C 8,0 km/h (2 Bft) 95,76 %
20.12.2015 13:55 3,2 C 99 % 1025,7 hPa 0,0 l/m 6,6 km/h (2 Bft) O-NO 57 0 min 0,000 mm 0,0 UV-I 30 W/m 3,1 C 3,0 C 11,3 km/h (2 Bft) 95,76 %
20.12.2015 14:00 3,2 C 99 % 1025,8 hPa 0,0 l/m 7,4 km/h (2 Bft) NO 44 0 min 0,026 mm 0,0 UV-I 29 W/m 3,1 C 2,3 C 12,9 km/h (3 Bft) 99,10 %
20.12.2015 14:05 3,2 C 99 % 1025,8 hPa 0,0 l/m 4,1 km/h (1 Bft) O-NO 70 0 min 0,000 mm 0,0 UV-I 28 W/m 3,1 C 3,2 C 9,7 km/h (2 Bft) 99,15 %
20.12.2015 14:10 3,3 C 99 % 1025,7 hPa 0,0 l/m 5,3 km/h (1 Bft) O-NO 65 0 min 0,000 mm 0,0 UV-I 26 W/m 3,2 C 3,3 C 9,7 km/h (2 Bft) 98,26 %
20.12.2015 14:15 3,3 C 99 % 1025,7 hPa 0,0 l/m 8,2 km/h (2 Bft) O 80 0 min 0,000 mm 0,0 UV-I 24 W/m 3,2 C 1,6 C 12,9 km/h (3 Bft) 99,19 %
20.12.2015 14:20 3,3 C 99 % 1025,8 hPa 0,0 l/m 6,0 km/h (2 Bft) O-NO 57 0 min 0,000 mm 0,0 UV-I 23 W/m 3,2 C 3,3 C 12,9 km/h (3 Bft) 100,00 %
20.12.2015 14:25 3,3 C 99 % 1025,8 hPa 0,0 l/m 9,4 km/h (2 Bft) O-NO 69 0 min 0,000 mm 0,0 UV-I 23 W/m 3,2 C 0,7 C 14,5 km/h (3 Bft) 99,19 %
20.12.2015 14:30 3,2 C 99 % 1025,8 hPa 0,0 l/m 7,1 km/h (2 Bft) NO 55 0 min 0,000 mm 0,0 UV-I 23 W/m 3,1 C 2,5 C 14,5 km/h (3 Bft) 97,32 %
20.12.2015 14:35 3,2 C 99 % 1025,8 hPa 0,0 l/m 8,6 km/h (2 Bft) O-NO 63 0 min 0,000 mm 0,0 UV-I 18 W/m 3,1 C 1,2 C 16,1 km/h (3 Bft) 100,00 %
20.12.2015 14:40 3,2 C 99 % 1025,8 hPa 0,0 l/m 5,7 km/h (1 Bft) O-SO 109 0 min 0,000 mm 0,0 UV-I 19 W/m 3,1 C 3,2 C 11,3 km/h (2 Bft) 100,00 %
20.12.2015 14:45 3,2 C 99 % 1025,9 hPa 0,0 l/m 7,1 km/h (2 Bft) O-NO 63 0 min 0,000 mm 0,0 UV-I 18 W/m 3,1 C 2,5 C 14,5 km/h (3 Bft) 99,17 %
20.12.2015 14:50 3,2 C 99 % 1025,9 hPa 0,0 l/m 6,5 km/h (2 Bft) O-NO 65 0 min 0,000 mm 0,0 UV-I 16 W/m 3,1 C 3,1 C 12,9 km/h (3 Bft) 99,15 %
20.12.2015 14:55 3,2 C 99 % 1025,9 hPa 0,0 l/m 5,6 km/h (1 Bft) NO 48 0 min 0,000 mm 0,0 UV-I 14 W/m 3,1 C 3,2 C 12,9 km/h (3 Bft) 100,00 %
20.12.2015 15:00 3,1 C 99 % 1025,8 hPa 0,0 l/m 6,6 km/h (2 Bft) O-NO 57 0 min 0,000 mm 0,0 UV-I 14 W/m 3,0 C 2,9 C 11,3 km/h (2 Bft) 99,17 %
20.12.2015 15:05 3,1 C 99 % 1025,8 hPa 0,0 l/m 12,4 km/h (3 Bft) NO 46 0 min 0,000 mm 0,0 UV-I 14 W/m 3,0 C -1,7 C 17,7 km/h (3 Bft) 97,39 %
20.12.2015 15:10 3,1 C 99 % 1025,9 hPa 0,0 l/m 11,7 km/h (2 Bft) O 82 0 min 0,000 mm 0,0 UV-I 13 W/m 3,0 C -1,2 C 17,7 km/h (3 Bft) 100,00 %
20.12.2015 15:15 3,0 C 99 % 1025,9 hPa 0,0 l/m 10,8 km/h (2 Bft) O-NO 71 0 min 0,000 mm 0,0 UV-I 12 W/m 2,9 C -0,7 C 17,7 km/h (3 Bft) 100,00 %
20.12.2015 15:20 3,0 C 99 % 1026,0 hPa 0,0 l/m 6,7 km/h (2 Bft) NO 51 0 min 0,000 mm 0,0 UV-I 13 W/m 2,9 C 2,7 C 12,9 km/h (3 Bft) 98,33 %
20.12.2015 15:25 3,0 C 99 % 1025,9 hPa 0,0 l/m 8,4 km/h (2 Bft) O-NO 71 0 min 0,000 mm 0,0 UV-I 11 W/m 2,9 C 1,2 C 14,5 km/h (3 Bft) 99,15 %
20.12.2015 15:30 2,9 C 99 % 1025,8 hPa 0,0 l/m 10,0 km/h (2 Bft) O-SO 114 0 min 0,000 mm 0,0 UV-I 10 W/m 2,8 C -0,2 C 17,7 km/h (3 Bft) 98,11 %
20.12.2015 15:35 2,9 C 99 % 1025,9 hPa 0,0 l/m 8,6 km/h (2 Bft) O 98 0 min 0,000 mm 0,0 UV-I 9 W/m 2,8 C 0,9 C 12,9 km/h (3 Bft) 96,67 %
20.12.2015 15:40 3,0 C 99 % 1025,8 hPa 0,0 l/m 10,5 km/h (2 Bft) O-NO 66 0 min 0,000 mm 0,0 UV-I 7 W/m 2,9 C -0,5 C 16,1 km/h (3 Bft) 97,69 %
20.12.2015 15:45 2,9 C 99 % 1025,8 hPa 0,0 l/m 9,8 km/h (2 Bft) O-NO 70 0 min 0,000 mm 0,0 UV-I 6 W/m 2,8 C -0,1 C 19,3 km/h (3 Bft) 95,41 %
20.12.2015 15:50 2,9 C 99 % 1025,8 hPa 0,0 l/m 8,8 km/h (2 Bft) NO 50 0 min 0,000 mm 0,0 UV-I 5 W/m 2,8 C 0,7 C 16,1 km/h (3 Bft) 97,62 %
20.12.2015 15:55 2,9 C 99 % 1025,8 hPa 0,0 l/m 12,3 km/h (3 Bft) O-NO 58 0 min 0,000 mm 0,0 UV-I 5 W/m 2,8 C -1,9 C 19,3 km/h (3 Bft) 96,33 %
20.12.2015 16:00 2,9 C 99 % 1025,7 hPa 0,0 l/m 12,0 km/h (2 Bft) O-NO 72 0 min 0,000 mm 0,0 UV-I 0 W/m 2,8 C -1,7 C 17,7 km/h (3 Bft) 97,17 %
20.12.2015 16:05 2,9 C 99 % 1025,6 hPa 0,0 l/m 12,2 km/h (2 Bft) O 93 0 min 0,000 mm 0,0 UV-I 0 W/m 2,8 C -1,8 C 19,3 km/h (3 Bft) 97,78 %
20.12.2015 16:10 2,9 C 99 % 1025,5 hPa 0,0 l/m 11,7 km/h (2 Bft) O-NO 70 0 min 0,000 mm 0,0 UV-I 0 W/m 2,8 C -1,5 C 20,9 km/h (4 Bft) 98,21 %
20.12.2015 16:15 2,9 C 99 % 1025,6 hPa 0,0 l/m 12,3 km/h (3 Bft) O-NO 72 0 min 0,000 mm 0,0 UV-I 0 W/m 2,8 C -1,9 C 19,3 km/h (3 Bft) 99,12 %
20.12.2015 16:20 2,9 C 99 % 1025,8 hPa 0,0 l/m 8,5 km/h (2 Bft) NO 46 0 min 0,000 mm 0,0 UV-I 0 W/m 2,8 C 1,0 C 17,7 km/h (3 Bft) 99,19 %
20.12.2015 16:25 2,8 C 99 % 1025,8 hPa 0,0 l/m 12,6 km/h (3 Bft) O-NO 58 0 min 0,000 mm 0,0 UV-I 0 W/m 2,7 C -2,2 C 17,7 km/h (3 Bft) 98,26 %
20.12.2015 16:30 2,7 C 99 % 1025,9 hPa 0,0 l/m 11,1 km/h (2 Bft) NO 51 0 min 0,000 mm 0,0 UV-I 0 W/m 2,6 C -1,3 C 16,1 km/h (3 Bft) 98,04 %
20.12.2015 16:35 2,6 C 99 % 1025,9 hPa 0,0 l/m 10,9 km/h (2 Bft) O-NO 76 0 min 0,000 mm 0,0 UV-I 0 W/m 2,5 C -1,2 C 17,7 km/h (3 Bft) 97,06 %
20.12.2015 16:40 2,6 C 99 % 1026,0 hPa 0,0 l/m 6,5 km/h (2 Bft) NO 44 0 min 0,000 mm 0,0 UV-I 0 W/m 2,5 C 2,5 C 11,3 km/h (2 Bft) 99,07 %
20.12.2015 16:45 2,7 C 99 % 1026,0 hPa 0,0 l/m 5,2 km/h (1 Bft) O-NO 65 0 min 0,000 mm 0,0 UV-I 0 W/m 2,6 C 2,7 C 9,7 km/h (2 Bft) 99,21 %
20.12.2015 16:50 2,7 C 99 % 1025,9 hPa 0,0 l/m 9,7 km/h (2 Bft) O-NO 69 0 min 0,000 mm 0,0 UV-I 0 W/m 2,6 C -0,2 C 16,1 km/h (3 Bft) 99,08 %
20.12.2015 16:55 2,7 C 99 % 1025,9 hPa 0,0 l/m 8,0 km/h (2 Bft) O-NO 63 0 min 0,000 mm 0,0 UV-I 0 W/m 2,6 C 1,2 C 12,9 km/h (3 Bft) 99,17 %
20.12.2015 17:00 2,7 C 99 % 1025,8 hPa 0,0 l/m 6,1 km/h (2 Bft) O-NO 63 0 min 0,000 mm 0,0 UV-I 0 W/m 2,6 C 2,7 C 11,3 km/h (2 Bft) 100,00 %
20.12.2015 17:05 2,7 C 99 % 1026,0 hPa 0,0 l/m 5,8 km/h (2 Bft) O-NO 71 0 min 0,000 mm 0,0 UV-I 0 W/m 2,6 C 2,7 C 12,9 km/h (3 Bft) 99,15 %
20.12.2015 17:10 2,7 C 99 % 1026,0 hPa 0,0 l/m 7,2 km/h (2 Bft) O 80 0 min 0,000 mm 0,0 UV-I 0 W/m 2,6 C 1,9 C 12,9 km/h (3 Bft) 100,00 %
20.12.2015 17:15 2,7 C 99 % 1026,0 hPa 0,0 l/m 4,4 km/h (1 Bft) O-NO 78 0 min 0,000 mm 0,0 UV-I 0 W/m 2,6 C 2,7 C 4,8 km/h (1 Bft) 98,47 %
20.12.2015 17:25 2,7 C 99 % 1026,0 hPa 0,0 l/m 9,0 km/h (2 Bft) NO 35 0 min 0,000 mm 0,0 UV-I 0 W/m 2,6 C 0,3 C 14,5 km/h (3 Bft) 99,42 %
20.12.2015 17:30 2,7 C 99 % 1026,0 hPa 0,0 l/m 8,7 km/h (2 Bft) O-NO 76 0 min 0,000 mm 0,0 UV-I 0 W/m 2,6 C 0,6 C 14,5 km/h (3 Bft) 97,52 %
20.12.2015 17:35 2,7 C 99 % 1026,0 hPa 0,0 l/m 9,9 km/h (2 Bft) O-NO 57 0 min 0,000 mm 0,0 UV-I 0 W/m 2,6 C -0,4 C 16,1 km/h (3 Bft) 97,14 %
20.12.2015 17:40 2,7 C 99 % 1026,0 hPa 0,0 l/m 8,6 km/h (2 Bft) NO 38 0 min 0,000 mm 0,0 UV-I 0 W/m 2,6 C 0,7 C 16,1 km/h (3 Bft) 97,64 %
20.12.2015 17:45 2,6 C 99 % 1026,1 hPa 0,0 l/m 10,2 km/h (2 Bft) NO 46 0 min 0,000 mm 0,0 UV-I 0 W/m 2,5 C -0,7 C 16,1 km/h (3 Bft) 97,44 %
20.12.2015 17:50 2,6 C 99 % 1026,1 hPa 0,0 l/m 8,8 km/h (2 Bft) N-NO 32 0 min 0,000 mm 0,0 UV-I 0 W/m 2,5 C 0,4 C 14,5 km/h (3 Bft) 96,61 %
20.12.2015 17:55 2,6 C 99 % 1026,1 hPa 0,0 l/m 10,3 km/h (2 Bft) NO 49 0 min 0,000 mm 0,0 UV-I 0 W/m 2,5 C -0,8 C 17,7 km/h (3 Bft) 97,32 %
20.12.2015 18:00 2,6 C 99 % 1026,1 hPa 0,0 l/m 10,5 km/h (2 Bft) O-NO 57 0 min 0,000 mm 0,0 UV-I 0 W/m 2,5 C -1,0 C 17,7 km/h (3 Bft) 98,26 %
20.12.2015 18:05 2,5 C 99 % 1026,2 hPa 0,0 l/m 9,7 km/h (2 Bft) NO 52 0 min 0,000 mm 0,0 UV-I 0 W/m 2,4 C -0,5 C 14,5 km/h (3 Bft) 98,37 %
20.12.2015 18:10 2,4 C 99 % 1026,1 hPa 0,0 l/m 9,5 km/h (2 Bft) O-NO 57 0 min 0,000 mm 0,0 UV-I 0 W/m 2,3 C -0,4 C 16,1 km/h (3 Bft) 99,17 %
20.12.2015 18:15 2,4 C 99 % 1026,1 hPa 0,0 l/m 10,4 km/h (2 Bft) O-NO 61 0 min 0,000 mm 0,0 UV-I 0 W/m 2,3 C -1,1 C 17,7 km/h (3 Bft) 97,22 %
20.12.2015 18:20 2,4 C 99 % 1026,1 hPa 0,0 l/m 8,5 km/h (2 Bft) NO 45 0 min 0,000 mm 0,0 UV-I 0 W/m 2,3 C 0,4 C 14,5 km/h (3 Bft) 100,00 %
20.12.2015 18:25 2,4 C 99 % 1026,2 hPa 0,0 l/m 9,7 km/h (2 Bft) N-NO 27 0 min 0,000 mm 0,0 UV-I 0 W/m 2,3 C -0,6 C 14,5 km/h (3 Bft) 99,17 %
20.12.2015 18:30 2,4 C 99 % 1026,2 hPa 0,0 l/m 8,3 km/h (2 Bft) NO 34 0 min 0,000 mm 0,0 UV-I 0 W/m 2,3 C 0,6 C 14,5 km/h (3 Bft) 99,00 %
20.12.2015 18:35 2,5 C 99 % 1026,2 hPa 0,0 l/m 8,4 km/h (2 Bft) N-NO 30 0 min 0,000 mm 0,0 UV-I 0 W/m 2,4 C 0,6 C 14,5 km/h (3 Bft) 99,17 %
20.12.2015 18:40 2,5 C 99 % 1026,2 hPa 0,0 l/m 7,3 km/h (2 Bft) N-NO 17 0 min 0,000 mm 0,0 UV-I 0 W/m 2,4 C 1,6 C 14,5 km/h (3 Bft) 99,22 %
20.12.2015 18:45 2,5 C 99 % 1026,4 hPa 0,0 l/m 6,3 km/h (2 Bft) NO 52 0 min 0,000 mm 0,0 UV-I 0 W/m 2,4 C 2,5 C 9,7 km/h (2 Bft) 100,00 %
20.12.2015 18:50 2,4 C 99 % 1026,4 hPa 0,0 l/m 6,0 km/h (2 Bft) N-NO 29 0 min 0,000 mm 0,0 UV-I 0 W/m 2,3 C 2,4 C 12,9 km/h (3 Bft) 97,52 %
20.12.2015 18:55 2,5 C 99 % 1026,4 hPa 0,0 l/m 7,1 km/h (2 Bft) NO 47 0 min 0,000 mm 0,0 UV-I 0 W/m 2,4 C 1,8 C 14,5 km/h (3 Bft) 100,00 %
20.12.2015 19:00 2,5 C 99 % 1026,4 hPa 0,0 l/m 9,5 km/h (2 Bft) NO 36 0 min 0,000 mm 0,0 UV-I 0 W/m 2,4 C -0,3 C 16,1 km/h (3 Bft) 98,21 %
20.12.2015 19:05 2,4 C 99 % 1026,4 hPa 0,0 l/m 6,9 km/h (2 Bft) O-NO 75 0 min 0,000 mm 0,0 UV-I 0 W/m 2,3 C 1,9 C 11,3 km/h (2 Bft) 100,00 %
20.12.2015 19:10 2,4 C 99 % 1026,4 hPa 0,0 l/m 7,8 km/h (2 Bft) NO 49 0 min 0,000 mm 0,0 UV-I 0 W/m 2,3 C 1,1 C 12,9 km/h (3 Bft) 98,33 %
20.12.2015 19:15 2,4 C 99 % 1026,4 hPa 0,0 l/m 6,8 km/h (2 Bft) O-NO 64 0 min 0,000 mm 0,0 UV-I 0 W/m 2,3 C 2,0 C 9,7 km/h (2 Bft) 98,35 %
20.12.2015 19:20 2,4 C 99 % 1026,4 hPa 0,0 l/m 6,4 km/h (2 Bft) NO 55 0 min 0,000 mm 0,0 UV-I 0 W/m 2,3 C 2,4 C 11,3 km/h (2 Bft) 100,00 %
20.12.2015 19:25 2,4 C 99 % 1026,4 hPa 0,0 l/m 9,1 km/h (2 Bft) NO 40 0 min 0,000 mm 0,0 UV-I 0 W/m 2,3 C -0,1 C 14,5 km/h (3 Bft) 100,00 %
20.12.2015 19:40 2,4 C 99 % 1026,4 hPa 0,0 l/m 9,0 km/h (2 Bft) O-NO 69 0 min 0,000 mm 0,0 UV-I 0 W/m 2,3 C 0,0 C 14,5 km/h (3 Bft) 97,56 %
20.12.2015 19:45 2,3 C 99 % 1026,4 hPa 0,0 l/m 8,6 km/h (2 Bft) O 97 0 min 0,000 mm 0,0 UV-I 0 W/m 2,2 C 0,2 C 14,5 km/h (3 Bft) 97,25 %
20.12.2015 19:50 2,3 C 99 % 1026,4 hPa 0,0 l/m 10,7 km/h (2 Bft) O-NO 59 0 min 0,000 mm 0,0 UV-I 0 W/m 2,2 C -1,4 C 14,5 km/h (3 Bft) 97,62 %
20.12.2015 19:55 2,3 C 99 % 1026,4 hPa 0,0 l/m 9,4 km/h (2 Bft) NO 49 0 min 0,000 mm 0,0 UV-I 0 W/m 2,2 C -0,4 C 14,5 km/h (3 Bft) 98,17 %
20.12.2015 20:00 2,4 C 99 % 1026,5 hPa 0,0 l/m 7,8 km/h (2 Bft) O-NO 61 0 min 0,000 mm 0,0 UV-I 0 W/m 2,3 C 1,1 C 14,5 km/h (3 Bft) 96,67 %
20.12.2015 20:05 2,4 C 99 % 1026,5 hPa 0,0 l/m 6,4 km/h (2 Bft) O-NO 73 0 min 0,000 mm 0,0 UV-I 0 W/m 2,3 C 2,4 C 12,9 km/h (3 Bft) 98,35 %
20.12.2015 20:10 2,4 C 99 % 1026,4 hPa 0,0 l/m 6,8 km/h (2 Bft) O-NO 59 0 min 0,000 mm 0,0 UV-I 0 W/m 2,3 C 2,0 C 11,3 km/h (2 Bft) 98,21 %
20.12.2015 20:15 2,4 C 99 % 1026,4 hPa 0,0 l/m 5,9 km/h (2 Bft) O-NO 67 0 min 0,000 mm 0,0 UV-I 0 W/m 2,3 C 2,4 C 14,5 km/h (3 Bft) 100,00 %
20.12.2015 20:20 2,4 C 99 % 1026,4 hPa 0,0 l/m 9,2 km/h (2 Bft) O-NO 57 0 min 0,000 mm 0,0 UV-I 0 W/m 2,3 C -0,2 C 16,1 km/h (3 Bft) 98,21 %
20.12.2015 20:25 2,4 C 99 % 1026,3 hPa 0,0 l/m 11,4 km/h (2 Bft) O-NO 77 0 min 0,000 mm 0,0 UV-I 0 W/m 2,3 C -1,8 C 16,1 km/h (3 Bft) 100,00 %
20.12.2015 20:30 2,3 C 99 % 1026,3 hPa 0,0 l/m 7,4 km/h (2 Bft) O 81 0 min 0,000 mm 0,0 UV-I 0 W/m 2,2 C 1,3 C 11,3 km/h (2 Bft) 100,00 %
20.12.2015 20:35 2,3 C 99 % 1026,5 hPa 0,0 l/m 5,7 km/h (1 Bft) O-SO 105 0 min 0,000 mm 0,0 UV-I 0 W/m 2,2 C 2,3 C 11,3 km/h (2 Bft) 99,21 %
20.12.2015 20:40 2,3 C 99 % 1026,5 hPa 0,0 l/m 4,7 km/h (1 Bft) O-SO 117 0 min 0,000 mm 0,0 UV-I 0 W/m 2,2 C 2,3 C 11,3 km/h (2 Bft) 99,17 %
20.12.2015 20:45 2,4 C 99 % 1026,5 hPa 0,0 l/m 5,0 km/h (1 Bft) NO 48 0 min 0,000 mm 0,0 UV-I 0 W/m 2,3 C 2,4 C 8,0 km/h (2 Bft) 100,00 %
20.12.2015 20:50 2,4 C 99 % 1026,6 hPa 0,0 l/m 5,5 km/h (1 Bft) NO 50 0 min 0,000 mm 0,0 UV-I 0 W/m 2,3 C 2,4 C 9,7 km/h (2 Bft) 100,00 %
20.12.2015 20:55 2,4 C 99 % 1026,6 hPa 0,0 l/m 7,8 km/h (2 Bft) O-NO 74 0 min 0,000 mm 0,0 UV-I 0 W/m 2,3 C 1,1 C 12,9 km/h (3 Bft) 100,00 %
20.12.2015 21:00 2,4 C 99 % 1026,5 hPa 0,0 l/m 10,0 km/h (2 Bft) NO 37 0 min 0,000 mm 0,0 UV-I 0 W/m 2,3 C -0,8 C 17,7 km/h (3 Bft) 99,13 %
20.12.2015 21:05 2,3 C 99 % 1026,5 hPa 0,0 l/m 9,4 km/h (2 Bft) O-NO 74 0 min 0,000 mm 0,0 UV-I 0 W/m 2,2 C -0,4 C 16,1 km/h (3 Bft) 99,17 %
20.12.2015 21:10 2,3 C 99 % 1026,5 hPa 0,0 l/m 6,4 km/h (2 Bft) O-NO 68 0 min 0,000 mm 0,0 UV-I 0 W/m 2,2 C 2,3 C 11,3 km/h (2 Bft) 100,00 %
20.12.2015 21:15 2,3 C 99 % 1026,5 hPa 0,0 l/m 7,0 km/h (2 Bft) NO 51 0 min 0,000 mm 0,0 UV-I 0 W/m 2,2 C 1,7 C 11,3 km/h (2 Bft) 99,15 %
20.12.2015 21:20 2,3 C 99 % 1026,5 hPa 0,0 l/m 10,2 km/h (2 Bft) O-NO 63 0 min 0,000 mm 0,0 UV-I 0 W/m 2,2 C -1,1 C 16,1 km/h (3 Bft) 100,00 %
20.12.2015 21:25 2,3 C 99 % 1026,4 hPa 0,0 l/m 10,3 km/h (2 Bft) NO 46 0 min 0,000 mm 0,0 UV-I 0 W/m 2,2 C -1,1 C 16,1 km/h (3 Bft) 98,37 %
20.12.2015 21:30 2,3 C 99 % 1026,5 hPa 0,0 l/m 9,7 km/h (2 Bft) NO 54 0 min 0,000 mm 0,0 UV-I 0 W/m 2,2 C -0,7 C 14,5 km/h (3 Bft) 99,13 %
20.12.2015 21:35 2,3 C 99 % 1026,4 hPa 0,0 l/m 8,9 km/h (2 Bft) NO 53 0 min 0,000 mm 0,0 UV-I 0 W/m 2,2 C -0,0 C 14,5 km/h (3 Bft) 98,33 %
20.12.2015 21:40 2,3 C 99 % 1026,6 hPa 0,0 l/m 8,9 km/h (2 Bft) O 86 0 min 0,000 mm 0,0 UV-I 0 W/m 2,2 C -0,0 C 14,5 km/h (3 Bft) 95,41 %
20.12.2015 21:45 2,3 C 99 % 1026,6 hPa 0,0 l/m 8,0 km/h (2 Bft) NO 48 0 min 0,000 mm 0,0 UV-I 0 W/m 2,2 C 0,8 C 14,5 km/h (3 Bft) 97,62 %
20.12.2015 21:50 2,3 C 99 % 1026,5 hPa 0,0 l/m 8,0 km/h (2 Bft) NO 55 0 min 0,000 mm 0,0 UV-I 0 W/m 2,2 C 0,8 C 14,5 km/h (3 Bft) 97,25 %
20.12.2015 21:55 2,4 C 99 % 1026,5 hPa 0,0 l/m 7,0 km/h (2 Bft) NO 40 0 min 0,000 mm 0,0 UV-I 0 W/m 2,3 C 1,8 C 9,7 km/h (2 Bft) 95,16 %
20.12.2015 22:00 2,4 C 99 % 1026,4 hPa 0,0 l/m 7,8 km/h (2 Bft) NO 56 0 min 0,000 mm 0,0 UV-I 0 W/m 2,3 C 1,1 C 11,3 km/h (2 Bft) 98,17 %
20.12.2015 22:05 2,4 C 99 % 1026,4 hPa 0,0 l/m 7,4 km/h (2 Bft) O-NO 62 0 min 0,000 mm 0,0 UV-I 0 W/m 2,3 C 1,4 C 12,9 km/h (3 Bft) 97,62 %
20.12.2015 22:10 2,4 C 99 % 1026,4 hPa 0,0 l/m 8,2 km/h (2 Bft) O-NO 74 0 min 0,000 mm 0,0 UV-I 0 W/m 2,3 C 0,7 C 14,5 km/h (3 Bft) 99,13 %
20.12.2015 22:15 2,4 C 99 % 1026,4 hPa 0,0 l/m 8,5 km/h (2 Bft) NO 55 0 min 0,000 mm 0,0 UV-I 0 W/m 2,3 C 0,4 C 14,5 km/h (3 Bft) 98,29 %
20.12.2015 22:20 2,4 C 99 % 1026,5 hPa 0,0 l/m 6,0 km/h (2 Bft) O-NO 75 0 min 0,000 mm 0,0 UV-I 0 W/m 2,3 C 2,4 C 11,3 km/h (2 Bft) 100,00 %
20.12.2015 22:25 2,4 C 99 % 1026,5 hPa 0,0 l/m 10,7 km/h (2 Bft) O-NO 71 0 min 0,000 mm 0,0 UV-I 0 W/m 2,3 C -1,3 C 17,7 km/h (3 Bft) 100,00 %
20.12.2015 22:30 2,3 C 99 % 1026,5 hPa 0,0 l/m 9,9 km/h (2 Bft) NO 40 0 min 0,000 mm 0,0 UV-I 0 W/m 2,2 C -0,8 C 17,7 km/h (3 Bft) 100,00 %
20.12.2015 22:35 2,2 C 99 % 1026,5 hPa 0,0 l/m 11,5 km/h (2 Bft) O 90 0 min 0,000 mm 0,0 UV-I 0 W/m 2,1 C -2,1 C 19,3 km/h (3 Bft) 99,15 %
20.12.2015 22:40 2,2 C 99 % 1026,5 hPa 0,0 l/m 11,5 km/h (2 Bft) O-NO 76 0 min 0,000 mm 0,0 UV-I 0 W/m 2,1 C -2,1 C 17,7 km/h (3 Bft) 99,10 %
20.12.2015 22:45 2,2 C 99 % 1026,6 hPa 0,0 l/m 8,9 km/h (2 Bft) O 89 0 min 0,000 mm 0,0 UV-I 0 W/m 2,1 C -0,1 C 14,5 km/h (3 Bft) 98,31 %
20.12.2015 22:50 2,3 C 99 % 1026,6 hPa 0,0 l/m 8,4 km/h (2 Bft) NO 55 0 min 0,000 mm 0,0 UV-I 0 W/m 2,2 C 0,4 C 16,1 km/h (3 Bft) 100,00 %
20.12.2015 22:55 2,3 C 99 % 1026,7 hPa 0,0 l/m 7,8 km/h (2 Bft) O 85 0 min 0,000 mm 0,0 UV-I 0 W/m 2,2 C 1,0 C 16,1 km/h (3 Bft) 98,37 %
20.12.2015 23:00 2,3 C 99 % 1026,7 hPa 0,0 l/m 7,5 km/h (2 Bft) O 85 0 min 0,000 mm 0,0 UV-I 0 W/m 2,2 C 1,2 C 12,9 km/h (3 Bft) 99,15 %
20.12.2015 23:05 2,3 C 99 % 1026,8 hPa 0,0 l/m 4,2 km/h (1 Bft) O-NO 65 0 min 0,000 mm 0,0 UV-I 0 W/m 2,2 C 2,3 C 8,0 km/h (2 Bft) 97,25 %
20.12.2015 23:10 2,4 C 99 % 1026,8 hPa 0,0 l/m 4,9 km/h (1 Bft) NO 40 0 min 0,000 mm 0,0 UV-I 0 W/m 2,3 C 2,4 C 8,0 km/h (2 Bft) 98,33 %
20.12.2015 23:15 2,4 C 99 % 1026,7 hPa 0,0 l/m 5,3 km/h (1 Bft) NO 44 0 min 0,000 mm 0,0 UV-I 0 W/m 2,3 C 2,4 C 8,0 km/h (2 Bft) 100,00 %
20.12.2015 23:20 2,4 C 99 % 1026,8 hPa 0,0 l/m 7,8 km/h (2 Bft) NO 38 0 min 0,000 mm 0,0 UV-I 0 W/m 2,3 C 1,1 C 11,3 km/h (2 Bft) 97,50 %
20.12.2015 23:25 2,4 C 99 % 1026,7 hPa 0,0 l/m 6,4 km/h (2 Bft) N-NO 30 0 min 0,000 mm 0,0 UV-I 0 W/m 2,3 C 2,4 C 14,5 km/h (3 Bft) 98,31 %
20.12.2015 23:30 2,3 C 99 % 1026,7 hPa 0,0 l/m 8,8 km/h (2 Bft) NO 38 0 min 0,000 mm 0,0 UV-I 0 W/m 2,2 C 0,1 C 14,5 km/h (3 Bft) 99,11 %
20.12.2015 23:35 2,3 C 99 % 1026,7 hPa 0,0 l/m 8,9 km/h (2 Bft) O-NO 65 0 min 0,000 mm 0,0 UV-I 0 W/m 2,2 C -0,0 C 12,9 km/h (3 Bft) 99,12 %
20.12.2015 23:40 2,2 C 99 % 1026,7 hPa 0,0 l/m 9,8 km/h (2 Bft) O-NO 61 0 min 0,000 mm 0,0 UV-I 0 W/m 2,1 C -0,9 C 16,1 km/h (3 Bft) 97,17 %
20.12.2015 23:45 2,2 C 99 % 1026,7 hPa 0,0 l/m 8,0 km/h (2 Bft) NO 54 0 min 0,000 mm 0,0 UV-I 0 W/m 2,1 C 0,7 C 14,5 km/h (3 Bft) 96,99 %
20.12.2015 23:50 2,2 C 99 % 1026,6 hPa 0,0 l/m 4,9 km/h (1 Bft) N-NO 22 0 min 0,000 mm 0,0 UV-I 0 W/m 2,1 C 2,2 C 9,7 km/h (2 Bft) 97,30 %
20.12.2015 23:55 2,2 C 99 % 1026,6 hPa 0,0 l/m 7,5 km/h (2 Bft) NO 44 0 min 0,000 mm 0,0 UV-I 0 W/m 2,1 C 1,1 C 12,9 km/h (3 Bft) 97,58 %
_ Min-Zeit 22:35 00:00 04:00 - 13:40 - - - - - - 22:35 03:25 13:40 00:05
Minimum _ 2,2 C 99 % 1024,7 hPa - 2,9 km/h (1 Bft) - - - - - - 2,1 C -3,6 C 4,8 km/h (1 Bft) 75,00 %
_ Max-Zeit 00:00 00:00 23:05 03:00 03:25 - - 00:00 12:00 00:00 12:00 00:00 00:30 03:10 00:30
Maximum _ 3,8 C 99 % 1026,8 hPa 0,2 l/m 16,1 km/h
O-NO (3 Bft)
- - 0 min 0,026 mm 0,0 UV-I 50 W/m 3,7 C 3,6 C 24,1 km/h
O-NO (4 Bft)
100,00 %
Durchschnitt _ 2,9 C 99 % 1025,8 hPa #0,2 l/m 9,0 km/h (2 Bft) O-NO - #0 min. #0,102 mm 0,0 UV-I 28 W/m 2,7 C 0,6 C 15,0 km/h (3 Bft) 98,42 %